Vorticity
nan nan nan nan nan nan nan nan nan nan nan nan nan nan nan nan nan nan nan nan nan nan nan nan nan nan nan nan nan nan nan nan nan nan nan nan nan nan nan nan nan nan nan nan
nan 7 7 6 6 12 14 13 9 8 10 8 13 11 7 14 8 10 9 8 8 11 11 9 6 6 11 9 9 11 9 10 8 14 13 11 13 7 1 15 20 11 6 nan
nan 7 6 6 7 10 12 11 8 11 9 8 13 13 7 7 7 9 7 10 9 7 9 9 8 7 7 3 14 12 10 10 7 2 -0 -2 -2 -0 9 14 4 13 14 nan
nan 7 6 5 6 10 14 13 11 10 8 12 10 7 12 11 10 8 10 9 8 6 5 8 7 5 9 10 11 12 13 8 9 8 6 6 7 7 7 5 10 7 3 nan
nan 6 6 6 7 14 15 8 7 12 11 12 8 6 12 10 11 5 12 7 8 10 8 9 7 7 13 9 4 6 8 11 11 9 14 17 12 14 10 13 17 12 9 nan
nan 6 5 6 10 16 12 9 11 12 9 9 8 14 10 8 8 12 8 6 9 11 11 9 10 9 7 5 2 5 7 9 8 8 11 20 23 19 15 20 17 19 18 nan
nan 7 6 6 8 14 14 10 11 10 11 11 12 10 9 8 6 7 6 10 13 9 9 12 14 15 16 12 11 11 7 7 7 9 16 15 4 12 26 12 13 16 17 nan
nan 7 6 5 6 12 13 11 10 11 13 10 12 8 6 8 13 14 10 8 7 6 12 13 13 18 20 20 18 18 17 5 7 12 11 8 6 6 13 -4 0 6 10 nan
nan 7 6 6 6 12 15 11 11 12 9 5 12 15 10 8 9 11 11 12 11 13 11 11 11 11 10 10 19 24 20 12 1 4 10 8 3 -3 5 22 7 4 11 nan
nan 7 6 7 8 12 14 8 12 13 7 9 11 10 9 9 13 12 4 9 12 14 11 11 11 7 9 14 16 14 8 12 11 6 7 4 0 13 34 25 5 9 12 nan
nan 8 7 6 6 10 13 11 10 11 8 6 7 8 8 10 13 12 5 8 11 9 12 12 11 11 10 9 10 11 15 11 14 14 9 -3 8 31 26 14 12 12 12 nan
nan 7 7 6 6 7 12 12 8 10 13 8 8 9 8 9 10 8 15 11 12 10 6 10 11 10 9 10 11 11 9 12 13 13 13 11 11 13 11 14 14 13 13 nan
nan 10 7 7 7 8 9 10 9 11 8 13 13 17 14 11 10 8 8 9 10 14 12 8 8 8 10 12 10 7 2 15 19 11 8 8 12 11 9 13 13 11 12 nan
nan 10 9 8 10 11 6 8 11 11 12 11 7 13 14 14 12 10 7 7 9 11 10 12 11 9 10 10 11 11 8 8 14 16 11 4 3 10 14 13 9 9 11 nan
nan 10 9 9 8 8 10 10 11 10 13 11 9 10 17 13 10 10 9 9 9 9 11 12 11 7 11 13 11 8 11 14 15 7 11 13 8 11 10 11 14 13 10 nan
nan 9 8 8 8 5 7 10 11 12 13 11 10 13 16 14 11 10 11 9 9 12 11 9 11 12 10 10 11 10 10 11 14 13 13 14 9 10 11 9 9 12 13 nan
nan 9 8 8 7 9 10 10 9 13 14 9 10 12 16 14 8 7 10 14 13 9 9 11 10 11 10 12 14 11 8 10 11 16 13 4 8 12 7 9 12 10 9 nan
nan 9 8 7 7 10 13 15 12 11 11 10 12 11 11 13 10 12 11 9 10 10 11 10 12 12 12 14 15 10 8 7 8 11 13 15 17 15 13 9 7 8 10 nan
nan 6 3 4 9 16 15 10 7 12 11 11 12 12 7 11 13 9 11 11 10 13 9 11 12 12 16 17 12 7 9 12 11 9 10 9 12 11 16 18 13 11 9 nan
nan 0 8 11 17 12 6 4 7 11 10 11 9 9 14 12 11 10 12 11 10 13 10 12 9 13 12 12 13 13 13 11 18 14 9 14 11 8 9 11 12 11 10 nan
nan 13 10 19 13 -3 6 10 10 11 10 12 15 11 9 9 14 14 9 9 11 10 15 13 9 11 12 10 8 10 13 16 16 15 11 15 18 13 8 7 9 10 10 nan
nan 8 11 10 9 11 13 9 11 11 11 13 13 13 11 9 10 10 12 13 11 13 12 10 13 14 14 9 8 10 10 10 11 12 12 13 14 13 12 10 8 9 10 nan
nan 11 12 10 13 10 12 9 10 10 13 12 11 15 12 10 13 12 11 11 10 11 13 9 14 16 11 10 7 9 11 11 9 9 9 10 11 12 12 10 9 10 9 nan
nan 13 9 10 11 15 12 10 13 10 12 13 11 13 13 9 10 12 12 11 10 13 12 13 15 10 9 13 11 9 9 9 9 9 10 9 9 10 10 10 12 10 9 nan
nan 14 12 11 8 11 12 13 11 12 11 10 10 13 13 11 11 11 8 13 12 12 15 15 16 12 10 9 10 9 10 10 9 10 11 9 9 10 10 10 12 10 10 nan
nan 13 13 12 14 11 11 12 10 10 11 11 13 12 10 13 12 11 12 9 14 15 13 15 13 11 11 11 11 11 10 11 11 11 11 10 12 12 9 9 10 11 11 nan
nan nan nan nan nan nan nan nan nan nan nan nan nan nan nan nan nan nan nan nan nan nan nan nan nan nan nan nan nan nan nan nan nan nan nan nan nan nan nan nan nan nan nan nan
CAPE
0 0 0 0 0 0 0 0 1 0 0 0 1 0 0 0 0 0 0 0 0 0 0 0 0 0 0 0 0 0 0 13 0 0 0 0 0 76 60 17 11 21 40 28
6 11 5 0 0 0 0 0 0 0 0 7 0 0 0 0 0 0 0 0 0 0 0 0 0 0 0 0 0 1 0 2 0 0 1 11 0 0 1 2 10 7 7 8
14 10 1 0 0 0 0 0 0 0 0 0 0 0 0 0 0 0 0 0 0 0 0 0 0 0 2 0 0 40 8 2 8 5 0 0 10 1 1 9 12 2 0 0
5 0 0 0 0 0 0 0 0 0 0 0 0 0 0 0 0 0 0 0 0 0 0 0 0 0 0 0 1 0 10 0 0 2 0 0 2 1 0 0 5 6 20 6
4 0 0 0 0 0 0 0 0 0 0 0 0 0 0 0 0 0 0 0 0 0 0 0 0 0 0 0 0 0 0 0 0 0 0 0 0 0 0 8 5 20 1 3
5 0 0 0 0 0 0 0 0 0 0 0 0 0 0 0 0 0 0 0 0 0 0 0 0 0 0 0 0 0 0 0 29 0 2 6 6 0 0 15 28 5 1 15
3 0 0 0 0 0 0 0 0 0 0 0 0 0 0 0 0 0 0 0 0 0 0 0 0 0 0 0 0 0 0 1 14 0 0 1 0 28 30 44 9 8 18 3
1 0 0 0 0 0 0 0 0 0 0 0 0 0 0 0 0 0 0 0 0 0 0 0 0 0 0 0 0 0 0 0 3 17 6 0 50 6 19 3 33 1 0 0
35 4 0 0 0 0 0 0 0 0 0 0 0 0 0 0 0 0 0 3 0 0 0 0 2 0 0 1 0 7 0 0 0 23 2 0 20 3 0 1 27 0 0 0
47 19 0 0 0 0 0 0 0 0 0 0 0 0 0 0 0 0 0 0 0 0 0 2 1 0 1 0 19 5 0 2 0 1 0 24 5 1 0 0 15 0 0 0
61 46 12 0 0 0 0 0 0 0 0 0 0 0 0 0 0 0 0 0 0 0 0 6 0 0 0 2 28 46 15 30 31 20 13 5 3 0 2 28 2 0 1 2
50 59 34 3 0 0 0 1 0 0 0 0 0 0 0 0 0 0 0 0 3 0 0 0 0 2 2 19 5 5 6 6 4 4 6 21 5 9 8 2 4 3 2 3
48 46 29 9 0 0 0 0 0 0 0 0 0 0 0 0 0 0 0 0 0 0 0 0 0 0 2 10 11 14 0 0 13 5 6 3 12 15 8 13 4 1 1 1
54 48 45 20 4 0 0 0 2 1 0 0 4 1 0 0 0 0 0 0 0 0 0 5 0 0 2 8 15 4 5 2 2 12 12 3 4 24 37 18 2 3 7 5
63 56 26 11 7 2 0 0 0 0 0 1 0 0 0 0 0 0 0 0 0 0 0 0 0 0 1 6 4 1 9 7 1 4 7 2 18 22 9 4 16 7 4 4
71 53 28 19 8 0 0 0 0 0 0 0 0 0 0 0 0 0 0 0 0 0 0 0 0 0 6 4 0 4 1 9 1 2 7 0 14 19 5 4 4 0 2 1
59 74 50 14 10 0 1 3 0 3 3 0 0 0 0 0 1 0 6 4 0 0 0 0 0 0 13 5 0 3 0 5 4 5 9 3 5 5 2 0 1 1 1 2
66 61 32 23 20 8 3 0 6 0 0 4 0 0 3 0 0 0 0 0 0 0 0 0 0 0 3 0 0 2 4 4 4 16 1 0 0 0 0 2 0 0 0 0
56 51 34 3 8 4 14 27 1 0 0 0 3 0 5 0 0 0 1 0 0 0 0 0 1 4 2 0 0 0 0 0 2 5 0 0 0 0 0 0 0 0 0 0
68 2 0 0 1 15 0 7 5 2 6 24 4 0 1 11 9 3 13 1 0 3 0 0 6 0 0 0 0 1 2 7 0 11 1 0 0 0 0 0 0 0 1 0
0 0 0 14 38 3 16 6 6 0 8 0 0 0 2 0 9 6 8 4 7 3 0 2 2 0 1 0 0 0 0 0 0 0 0 0 0 0 0 0 0 0 0 0
0 3 5 4 12 12 14 2 1 4 0 1 0 0 0 0 5 6 9 7 4 0 0 8 0 2 0 0 0 0 0 0 0 0 0 0 0 0 0 0 0 0 0 0
4 8 5 29 0 2 0 0 1 0 0 0 1 0 11 4 3 0 6 2 0 4 4 0 0 0 0 0 0 0 0 0 0 0 0 0 0 0 0 0 0 0 0 0
11 31 1 0 0 0 1 3 0 3 6 11 4 3 1 2 2 0 2 0 1 1 3 0 0 0 0 0 0 0 0 0 0 0 0 0 0 0 0 0 0 0 0 0
7 9 3 0 0 0 0 0 1 0 0 0 0 5 0 4 0 0 2 2 0 0 0 0 0 0 0 0 0 0 0 0 0 0 0 0 0 0 0 0 0 0 0 0
1 0 0 0 1 0 0 0 0 2 0 0 0 2 0 0 3 1 0 0 0 0 0 0 0 0 0 0 0 0 0 0 0 0 0 0 0 0 0 0 0 0 0 0
1 1 0 1 7 7 7 0 7 3 2 0 0 2 0 0 0 0 0 0 0 0 0 0 0 0 0 0 0 0 0 0 0 0 0 0 0 0 0 0 0 0 0 0